Flag for U.S.A. Weather past 2 weeks in Lansing, Michigan, U.S.A.

Now
75 °F

Passing clouds.


Feels Like: 77 °F
Forecast: 62 / 81 °F
Wind: 6 mph from East

Location: Capital City Airport

Current Time: Aug 21, 2014 at 12:57:53 PM

Latest Report: Aug 21, 2014 at 11:53 AM


Visibility: 10 mi

Pressure: 30.00 "Hg

Humidity: 71%

Dew point: 65 °F

Location of LansingLocation

Historic Weather in Lansing — Graph

°F

Lansing temperature yesterday

Maximum temperature yesterday: 80 °F (at 2:53 PM)
Minimum temperature yesterday: 65 °F (at 3:53 AM)
Average temperature yesterday: 71 °F

Past Weeks' High & Low Weather Summary

 TemperatureHumidityPressure
High83 °F (Aug 10, 4:53 PM)97% (Aug 12, 5:58 AM)30.17 "Hg (Aug 12, 5:58 AM)
Low46 °F (Aug 15, 3:53 AM)39% (Aug 7, 5:53 PM)29.67 "Hg (Aug 12, 4:53 AM)
Average67 °F73%29.96 "Hg
* Reported Aug 6 11:53 AM — Aug 21 11:53 AM, Lansing, Weather by CustomWeather, © 2014

Note: Actual official high and low records may vary slightly from our data, if they occured in-between our weather recording intervals... More about our weather records

Advertising

Lansing weather history for previous 24 hours

 ConditionsComfort  
Time TempWeatherWind HumidityBarometerVisibility
11:53 AM
Aug 21
75 °FPassing clouds.6 mph71%30.00 "Hg10 mi
10:53 AM72 °FSunny.3 mph76%30.01 "Hg10 mi
9:53 AM69 °FSunny.6 mph84%29.99 "Hg10 mi
8:53 AM66 °FSunny.5 mph87%29.98 "Hg10 mi
7:53 AM64 °FScattered clouds.No wind90%29.98 "Hg7 mi
6:53 AM62 °FClear.No wind93%29.96 "Hg7 mi
6:01 AM62 °FFog.No wind93%29.96 "Hg1 mi
4:53 AM63 °FPassing clouds.No wind93%29.95 "Hg9 mi
3:53 AM63 °FFog.No wind93%29.96 "Hg6 mi
2:53 AM64 °FClear.No wind94%29.96 "Hg7 mi
1:53 AM65 °FPassing clouds.No wind91%29.96 "Hg9 mi
12:53 AM66 °FPassing clouds.No wind90%29.97 "Hg10 mi
11:53 PM
Aug 20
67 °FClear.No wind87%29.96 "Hg10 mi
10:53 PM67 °FPassing clouds.No wind87%29.94 "Hg10 mi
9:53 PM68 °FClear.No wind87%29.92 "Hg10 mi
8:53 PM72 °FSunny.3 mph73%29.90 "Hg10 mi
7:53 PM75 °FSunny.6 mph66%29.89 "Hg10 mi
6:53 PM78 °FSunny.12 mph60%29.88 "Hg10 mi
5:53 PM79 °FPassing clouds.12 mph58%29.88 "Hg10 mi
4:53 PM78 °FPartly sunny.13 mph60%29.88 "Hg10 mi
3:53 PM80 °FScattered clouds.15 mph56%29.88 "Hg10 mi
2:53 PM80 °FPartly sunny.16 mph60%29.88 "Hg10 mi
1:53 PM78 °FPartly sunny.14 mph62%29.87 "Hg10 mi
12:53 PM78 °FBroken clouds.12 mph62%29.86 "Hg10 mi
Weather by CustomWeather, © 2014

See weather overviewHow to use our weather pages